Overview Statistics Trail Chart Weather Telemetry Raw packets
 

This is the latest recevied weather packets stored in our database for station/object SQ5DCP-1. If no packets are shown the sender has not sent any weather packets the latest 10 day(s).

<< 10 11 12 13 14 15 16 >>
Time Temp. Humidity Pressure Rain* Wind** Luminosity Snow
1788556226 21.11° C 74% 1008 hPa 0.51 mm - - -
1788555924 21.67° C 72% 1007.9 hPa 0.25 mm - - -
1788555622 22.22° C 68% 1007.6 hPa 0.25 mm - - -
1788555320 22.22° C 67% 1006.9 hPa 0.25 mm - - -
1788555019 22.22° C 67% 1006.3 hPa 0.25 mm - - -
1788554717 22.78° C 67% 1005.9 hPa 0.25 mm - - -
1788554435 22.78° C 66% 1005.8 hPa 0.25 mm - - -
1788554133 23.33° C 63% 1005.9 hPa 0 mm - - -
1788553830 22.78° C 62% 1006 hPa 0 mm - - -
1788553529 22.78° C 62% 1006 hPa 0 mm - - -
1788553226 22.78° C 62% 1006 hPa 0 mm - - -
1788552924 22.78° C 62% 1006.1 hPa 0 mm - - -
1788552622 22.78° C 62% 1006.1 hPa 0 mm - - -
1788552320 22.78° C 62% 1006.2 hPa 0 mm - - -
1788552018 22.78° C 62% 1006.3 hPa 0 mm - - -
1788551716 22.78° C 63% 1006.3 hPa 0 mm - - -
1788551434 22.78° C 63% 1006.4 hPa 0 mm - - -
1788551132 22.78° C 63% 1006.6 hPa 0 mm - - -
1788550830 22.78° C 63% 1006.7 hPa 0 mm - - -
1788550528 22.78° C 63% 1006.7 hPa 0 mm - - -
1788550226 22.78° C 63% 1006.7 hPa 0 mm - - -
1788549925 22.78° C 63% 1006.7 hPa 0 mm - - -
1788549622 22.78° C 64% 1006.8 hPa 0 mm - - -
1788549320 22.78° C 64% 1006.9 hPa 0 mm - - -
1788549018 22.78° C 64% 1006.9 hPa 0 mm - - -

* Rain latest hour (hover to see other rain measurements)
** Current wind speed in m/s (hover to see current wind gust speed)